Regional Weather Roundup
Issued by NWS

Home | Current Version | Previous Version | Graphics & Text | Print | Product List | Glossary Off
Versions: 1 2 3 4 5 6 7 8 9 10 11 12 13 14 15 16 17 18 19 20 21 22 23 24 25 26 27 28 29 30 31 32 33 34 35 36 37 38 39 40 41 42 43 44 45 46 47 48 49 50

000
ASUS43 KDTX 061410
RWRMI
MICHIGAN HOURLY REGIONAL WEATHER ROUNDUP
NATIONAL WEATHER SERVICE DETROIT/PONTIAC MI
1000 AM EDT WED MAY 06 2015

NOTE: "FAIR" INDICATES FEW OR NO CLOUDS BELOW 12,000 FEET WITH NO
SIGNIFICANT WEATHER AND/OR OBSTRUCTION TO VISIBILITY.

MIZ047>049-052>055-059>063-066>070-074>076-081>083-061500-
SOUTHEAST LOWER MICHIGAN

CITY           SKY/WX    TMP DP  RH WIND       PRES   REMARKS
ADRIAN         FOG       53  52  96 E8        30.26F VSB 1/2
ALMA           CLOUDY    54  49  83 E5        30.28S
ANN ARBOR      CLOUDY    55  52  89 E8        30.26S FOG
BAD AXE        PTSUNNY   55  46  72 SE5       30.28S
CARO           PTSUNNY   55  41  61 CALM      30.27S
DETROIT CITY   CLOUDY    55  49  80 E7        30.27S
DETROIT        CLOUDY    57  52  83 E5        30.27S HAZE
FLINT          CLOUDY    59  51  75 SE9       30.27R
GROSSE ILE     CLOUDY    54  52  94 NE5       30.26R FOG
HILLSDALE      FOG       54  54 100 E6        30.25R VSB 1/4
HOWELL         CLOUDY    56  54  91 SE8       30.25F FOG

CITY           SKY/WX    TMP DP  RH WIND       PRES   REMARKS
JACKSON        CLOUDY    54  52  93 SE8       30.25S FOG
LAMBERTVILLE   FOG       54  52  94 E7        30.26S VSB 1/2
LANSING        CLOUDY    56  52  86 SE6       30.25F FOG
LAPEER         CLOUDY    55  45  69 CALM      30.27S
MASON          CLOUDY    53  51  93 SE7       30.25F FOG
MONROE         CLOUDY    55  54  94 CALM      30.25S FOG
MT. CLEMENS    CLOUDY    54  49  82 N5        30.25S HAZE
PONTIAC        CLOUDY    57  50  77 SE6       30.26S
PORT HOPE        N/A     45  42  89 E7        30.27S
PORT HURON     CLOUDY    52  46  82 CALM      30.27F
TRI CITIES     CLOUDY    58  46  64 E5        30.28S
MIDLAND        PTSUNNY   58  48  70 E5        30.27F
TROY           CLOUDY    56  49  75 E5        30.28F
SAGINAW HB     CLOUDY    54  43  66 E3        30.27S
$$
MIZ043>046-050>051-056>058-064>065-071>073-077>080-061500-
SOUTHWEST LOWER MICHIGAN

CITY           SKY/WX    TMP DP  RH WIND       PRES   REMARKS
BATTLE CREEK   CLOUDY    55  53  93 SE5       30.24S FOG
BENTON HARBOR  MOSUNNY   59  56  89 SE10      30.19F FOG
BIG RAPIDS     CLOUDY    53  49  85 E8        30.26S
COLDWATER      CLOUDY    55  55  99 SE5       30.25R FOG
FREMONT        FAIR      58  52  81 SE6       30.23F
HOLLAND        CLOUDY    56  54  93 E9        30.23S FOG
GRAND RAPIDS   CLOUDY    55  52  89 E7        30.25R FOG
IONIA          CLOUDY    55  53  94 E5        30.25R FOG
KALAMAZOO      CLOUDY    56  54  93 SE6       30.24S FOG
LUDINGTON      CLOUDY    58  50  74 SE8       30.23S
MARSHALL       CLOUDY    53  53  99 S6        30.24S FOG
MOUNT PLEASANT CLOUDY    53  47  79 E5        30.27S
MUSKEGON       CLOUDY    57  52  83 E10       30.24R HAZE
SOUTH HAVEN    CLOUDY    59  56  91 SE9       30.21S FOG
$$
MIZ016>042-061500-
NORTHERN LOWER MICHIGAN

CITY           SKY/WX    TMP DP  RH WIND       PRES   REMARKS
ALPENA         MOSUNNY   58  46  64 SE9       30.30S
BEAVER ISLAND  MOSUNNY   61  39  44 E6        30.27S
BELLAIRE       PTSUNNY   57  39  51 CALM      30.27S
CADILLAC       CLOUDY    56  43  62 SE8       30.25S
CHARLEVOIX     MOSUNNY   58  40  52 E5        30.29F
FRANKFORT      CLOUDY    58  36  43 E6        30.24F
GAYLORD        MOSUNNY   56  39  53 S8        30.28R
GRAYLING       MOSUNNY   55  39  54 CALM      30.28S
HARBOR SPRINGS MOSUNNY   62  36  38 NE3       30.27S
HOUGHTON LAKE  CLOUDY    54  42  64 SE3       30.28S
MANISTEE       CLOUDY    57  43  58 SE7       30.24F
OSCODA         PTSUNNY   50  48  92 CALM      30.29R
PELLSTON       MOSUNNY   60  37  42 SE7       30.28S
ROGERS CITY    MOSUNNY   53  45  74 NE5       30.30S
TRAVERSE CITY  CLOUDY    58  42  55 SE6       30.25S
$$
MIZ007>008-015-061500-
EASTERN UPPER MICHIGAN

CITY           SKY/WX    TMP DP  RH WIND       PRES   REMARKS
KINROSS        SUNNY     61  37  41 SE9       30.29S
MACKINAC ISLAN SUNNY     53  41  63 E3        30.28S
NEWBERRY       SUNNY     62  35  36 S13       30.27S
S. S. MARIE    SUNNY     57  39  51 SE5       30.29S
MUNISING         N/A     62  32  32 S9        30.23F
$$
MIZ004>006-011>014-085-061500-
CENTRAL UPPER MICHIGAN

CITY           SKY/WX    TMP DP  RH WIND       PRES   REMARKS
MANISTIQUE     MOSUNNY   57  33  40 S3        30.27S
ESCANABA       PTSUNNY   52  37  58 SE6       30.25S
MENOMINEE      PTSUNNY   54  39  58 E5        30.23S
SAWYER-GWINN   SUNNY     57  34  41 S6        30.23F
$$
MIZ001>003-009>011-084-061500-
WESTERN UPPER MICHIGAN

CITY           SKY/WX    TMP DP  RH WIND       PRES   REMARKS
IRON MOUNTAIN  CLOUDY    57  31  37 VRB3      30.21F
HOUGHTON       SUNNY     58  25  28 SE6       30.20F
COPPER HARBOR    N/A     53  30  41 E6        30.21S
IRONWOOD       CLOUDY    55  45  67 SE7       30.14S
$$

ABBREVIATIONS USED IN REMARKS
   TC - TEMPERATURE IN CELSIUS
  WCI - WIND CHILL INDEX
   HX - HEAT INDEX
  VSB - VISIBILITY




USA.gov is the U.S. government's official web portal to all federal, state and local government web resources and services.